Dewpoint
-4 -0 0 1 1 2 1 -0 2 1 0 0 -1 1 -2 -3 -1 0 0 -1 -1 -1 -2 -0 -1 -0 -1 -3 -1 -0 -2 -0 1 -1 -4 -3 3 3 3 5 5 4 6 6
3 3 2 2 2 0 1 1 1 1 1 1 1 -2 -2 -3 -3 -1 -1 -2 -1 -1 -1 -0 -2 -2 -3 -2 -2 -0 -2 -2 2 0 -2 -2 2 2 1 1 2 6 7 7
2 2 2 1 1 1 -2 0 2 0 1 -1 -1 -1 -2 -3 -3 -3 -2 -2 -2 -3 -2 -3 -3 -3 -2 -2 -1 -2 -5 -2 -1 2 2 1 4 2 2 2 5 5 6 5
3 3 3 2 -1 -2 -6 -3 -0 -0 1 -1 -1 -3 -2 -2 -2 -3 -3 -3 -2 -1 -1 -1 -1 -2 -2 -3 -2 -4 -5 0 -1 -1 -2 -0 2 3 3 4 4 5 5 4
3 3 2 2 -4 -8 -7 -4 -1 -2 -2 -1 -1 -5 -2 -2 -2 -3 -2 -2 -1 -2 -0 -1 -0 0 -1 -1 -2 -2 -2 0 -1 -1 -1 -1 2 2 2 3 3 3 2 3
3 3 1 -2 -4 -9 -7 -6 -5 -4 -3 -2 -2 -4 -2 -2 -3 -4 -3 -2 -2 -1 -1 -1 -1 -1 -2 -2 -1 -1 -0 -0 0 2 -0 -1 2 4 4 4 3 4 5 4
2 3 2 -1 -1 -7 -8 -7 -8 -6 -3 -2 -4 -6 -6 -4 -4 -2 -3 -3 -2 -2 -1 -0 0 -1 -2 -2 -2 -1 1 1 1 3 -1 3 1 1 2 5 4 3 3 2
3 3 3 2 1 -2 -8 -9 -9 -8 -3 -5 -7 -7 -5 -5 -5 -5 -3 -3 -2 -1 -1 -1 -1 -1 0 -2 -2 -1 -1 0 1 2 2 1 1 1 2 2 5 2 3 2
2 3 1 -1 -2 -1 -3 -9 -10 -10 -6 -6 -7 -7 -6 -4 -5 -5 -4 -3 -2 -0 0 1 2 1 -0 0 -1 -2 -0 -1 1 1 2 2 1 1 1 1 3 2 2 2
2 2 2 2 -0 -4 -2 -10 -9 -10 -7 -7 -8 -7 -6 -7 -6 -4 -4 -3 -2 -1 0 2 1 -0 -1 1 0 -0 -1 -0 1 0 2 0 -1 1 1 2 2 2 2 2
2 1 2 2 1 -3 -4 -5 -10 -10 -8 -7 -7 -8 -8 -7 -6 -4 -4 -2 -1 -1 1 -0 -1 -1 -1 -0 -1 0 0 1 2 1 1 2 1 1 2 2 2 3 3 3
-1 2 2 2 1 0 -3 -4 -8 -9 -9 -6 -6 -7 -8 -9 -9 -7 -3 -2 -1 -0 -1 -2 -3 -2 -2 -1 -0 -2 1 -1 -0 -0 -1 -0 2 2 2 2 3 2 3 3
-4 1 2 2 2 1 -4 -5 -8 -9 -7 -5 -5 -5 -6 -6 -6 -6 -2 -3 -2 -2 -3 -3 -3 -2 -3 -1 -1 -1 -2 -2 -0 -0 -1 1 1 2 3 2 3 2 2 3
-7 -5 -1 2 2 1 -1 -5 -7 -8 -9 -6 -5 -6 -5 -5 -5 -5 -3 -3 -2 -3 -3 -2 -2 -2 -3 -3 -3 -1 -2 -2 -1 -1 -1 1 1 1 1 2 0 1 2 2
-5 2 2 2 2 1 -1 -6 -7 -9 -9 -7 -4 -5 -6 -6 -5 -5 -4 -4 -3 -2 -2 -2 -1 -2 -1 -2 -2 -2 -3 -2 -1 -2 -2 -1 -0 1 0 1 0 -0 -0 -0
-1 1 2 2 2 1 1 -7 -8 -8 -6 -9 -4 -5 -4 -5 -4 -3 -3 -3 -3 -3 -2 -3 -3 -2 -1 -1 -1 -4 -3 -3 -2 -2 -1 -1 0 0 0 0 -0 -0 -0 -1
-1 0 2 2 2 1 -1 -7 -7 -6 -6 -9 -3 -4 -4 -4 -5 -5 -4 -3 -4 -5 -4 -4 -3 -3 -1 -1 -1 -5 -4 -2 -2 -1 0 0 -0 0 0 -1 -1 -1 -1 -1
-1 -1 1 1 1 1 1 -5 -7 -6 -6 -9 -3 -4 -4 -4 -4 -4 -5 -6 -6 -6 -5 -4 -4 -3 -2 -0 -3 -5 -2 -1 -0 -0 -0 -1 -1 -0 -0 -0 -1 -1 -1 -1
-1 -2 1 1 0 0 -3 -6 -6 -5 -6 -4 -5 -4 -3 -4 -4 -4 -4 -5 -4 -4 -4 -5 -4 -3 -1 -4 -4 -4 -1 -1 -0 -1 -1 -2 -1 -1 -2 -2 -1 -1 -1 -1
-1 -1 0 -0 -0 -0 -1 -2 -4 -5 -6 -5 -5 -6 -4 -4 -4 -4 -3 -3 -3 -2 -4 -4 -3 -3 -5 -7 -7 -7 -2 -0 -0 -1 -1 -2 -2 -2 -2 -2 -2 -2 -4 -10
-0 -0 -0 -1 -1 -1 -1 -2 -4 -4 -4 -5 -6 -5 -4 -5 -4 -3 -4 -3 -3 -2 -3 -2 -2 -2 -4 -7 -7 -6 -3 -1 -1 -1 -2 -3 -3 -3 -5 -9 -14 -15 -16 -16
-1 -1 -1 -2 -1 -2 -2 -2 -4 -4 -4 -5 -4 -4 -5 -6 -6 -4 -4 -3 -4 -2 -4 -2 -1 -4 -6 -5 -6 -5 -2 -1 -2 -2 -4 -5 -10 -15 -16 -16 -16 -16 -16 -15
-1 -0 -1 -2 -2 -1 -1 -1 -3 -4 -5 -5 -4 -4 -6 -5 -5 -4 -5 -3 -3 -4 -2 -2 -5 -6 -5 -5 -4 -4 -1 -1 -2 -4 -8 -14 -16 -17 -17 -17 -17 -16 -12 -11
-1 -2 -2 -2 -1 -1 -1 -3 -3 -8 -6 -5 -5 -4 -4 -4 -4 -5 -4 -5 -4 -2 -1 -2 -5 -6 -4 -4 -3 -2 -1 -2 -4 -9 -15 -16 -16 -18 -19 -14 -11 -10 -10 -11
-1 -1 -0 -1 -3 -4 -4 -7 -7 -7 -6 -5 -6 -5 -5 -4 -4 -5 -5 -4 -2 -3 -2 -3 -6 -6 -4 -3 -2 -2 -3 -6 -11 -15 -16 -17 -20 -16 -11 -10 -11 -13 -13 -12
-1 -2 -1 -4 -3 -3 -4 -5 -5 -5 -4 -7 -7 -4 -4 -4 -5 -3 -3 -4 -4 -3 -3 -7 -7 -5 -3 -2 -3 -4 -6 -12 -16 -16 -18 -20 -15 -11 -12 -13 -13 -11 -9 -8
-2 -2 -3 -3 -3 -2 -3 -5 -5 -5 -6 -3 -5 -5 -5 -7 -4 -5 -5 -4 -3 -7 -9 -8 -6 -4 -3 -3 -3 -6 -13 -15 -16 -18 -19 -15 -12 -12 -13 -13 -11 -9 -8 -8
Wind_Speed
42 42 35 33 38 43 22 11 4 11 14 3 2 1 1 3 4 2 2 2 2 1 3 2 1 1 4 2 6 5 3 3 5 2 2 3 3 10 6 4 5 4 2 5
35 36 31 30 35 25 17 8 8 11 4 2 0 1 1 1 3 1 2 2 1 2 3 1 1 3 2 5 5 6 7 3 6 1 3 6 6 15 4 3 3 15 4 4
24 23 18 29 19 18 16 9 3 3 1 2 2 2 3 5 5 3 4 2 1 2 4 4 1 3 1 4 5 7 3 4 7 6 3 6 9 20 18 7 6 9 11 16
9 10 14 21 19 8 5 5 3 5 3 4 1 2 1 5 2 4 7 1 1 2 2 1 2 3 4 0 6 4 3 5 5 4 4 5 15 14 18 19 13 8 10 14
5 4 12 15 12 17 12 5 7 5 4 2 4 2 4 5 2 2 1 3 4 3 4 3 3 2 4 3 3 2 3 2 3 5 7 7 17 18 14 14 11 10 12 11
7 6 9 6 3 7 10 12 11 7 4 7 4 2 3 5 4 2 2 2 6 7 4 4 5 5 3 2 3 4 2 2 2 1 6 5 5 11 9 5 10 7 10 7
10 9 9 7 6 14 11 10 5 3 4 5 2 3 1 5 1 1 1 1 2 1 6 6 4 4 3 2 4 4 3 2 2 2 4 4 1 2 3 5 7 9 8 11
8 7 8 9 4 4 9 9 4 3 4 5 4 6 4 6 4 3 2 3 5 8 0 1 1 1 2 2 2 3 3 2 2 1 4 3 3 3 2 3 6 9 10 11
8 9 8 8 7 8 4 6 6 4 9 5 6 5 6 4 3 2 1 4 6 4 1 2 1 1 2 0 2 1 1 1 2 1 2 1 3 3 1 1 3 8 10 10
6 10 12 12 7 5 8 5 3 1 5 7 10 3 6 5 3 2 2 4 3 3 2 2 2 1 1 2 1 0 1 2 2 2 1 1 1 3 1 3 4 2 5 8
6 7 10 11 8 6 9 11 4 1 2 10 10 8 8 7 5 3 6 5 3 3 3 2 1 2 1 2 1 2 2 2 2 1 1 2 2 1 2 4 3 3 5 6
10 7 6 9 12 8 9 12 8 4 2 6 10 9 10 9 9 5 11 1 3 3 3 2 1 2 2 2 2 2 3 2 1 3 1 1 0 3 4 3 3 3 3 4
11 10 14 11 11 13 9 10 8 5 3 5 7 7 8 9 9 9 5 4 6 4 4 2 1 4 2 3 4 2 4 4 3 2 6 6 5 4 4 4 3 2 2 3
13 15 17 17 10 15 8 9 11 8 2 2 5 8 8 8 9 9 9 4 7 6 5 2 2 2 3 2 2 3 1 8 4 3 3 4 7 8 6 5 2 1 2 3
12 9 9 14 13 15 9 12 12 11 5 1 2 8 8 9 8 9 10 9 8 6 3 3 2 1 3 1 2 5 11 6 6 3 10 5 8 13 9 6 3 2 3 4
9 7 3 9 12 15 11 5 10 13 8 3 2 3 7 9 8 7 8 11 9 5 3 3 3 3 2 3 3 6 16 12 8 2 11 6 11 12 9 6 4 3 4 6
12 8 12 12 13 15 13 6 7 11 10 5 2 3 5 9 8 7 6 8 5 4 3 4 3 4 5 3 5 4 14 15 13 10 16 8 12 7 11 8 7 7 6 7
13 11 12 16 15 16 17 17 8 9 8 5 2 2 4 11 5 5 7 5 5 4 3 2 4 5 4 5 14 8 14 17 15 18 14 8 13 11 11 9 9 9 10 9
13 13 14 20 21 14 11 13 7 13 7 5 4 5 4 13 5 5 6 6 3 3 3 4 5 4 7 10 13 20 24 21 20 20 14 12 11 11 10 9 9 10 11 12
15 13 12 7 8 16 13 8 4 8 10 9 4 6 3 9 6 4 5 3 2 3 3 6 4 5 21 17 15 22 27 23 24 23 15 14 13 12 10 9 9 9 11 12
27 14 8 7 19 15 11 6 6 8 5 9 9 11 6 11 4 3 6 3 3 3 3 4 3 5 6 17 23 21 27 25 21 22 16 14 11 11 9 7 6 8 11 14
24 12 14 13 8 6 6 5 3 6 6 8 9 7 7 10 7 4 5 4 3 4 8 3 4 5 8 17 25 24 29 24 22 17 14 13 11 9 6 6 8 10 13 15
25 13 9 9 10 6 8 9 5 4 10 14 12 6 10 7 6 4 3 5 5 9 4 5 6 3 14 22 25 27 29 24 20 17 14 12 8 6 6 7 9 11 12 13
12 11 8 7 7 8 8 6 6 9 16 27 24 6 4 5 5 3 5 3 5 5 5 7 3 17 21 28 28 32 30 25 21 17 14 10 7 6 6 8 9 9 10 11
11 9 7 9 9 5 8 14 10 14 25 35 18 5 3 2 3 3 4 5 6 7 6 3 8 26 31 34 33 32 29 25 21 16 12 9 7 5 5 5 6 7 8 9
9 12 5 2 7 5 6 16 12 19 28 24 7 5 4 5 4 5 9 7 7 4 4 8 21 31 36 37 34 29 25 23 18 14 10 8 5 2 2 3 4 6 6 7
10 5 18 18 6 13 14 17 19 29 29 4 5 6 6 4 3 5 5 5 3 4 11 18 29 36 39 37 32 28 25 20 16 12 10 7 5 2 1 2 4 4 5 7
Wind_Direction
105 100 104 112 136 139 145 96 82 133 123 73 15 350 297 329 149 44 122 103 105 70 97 71 37 338 236 357 317 313 329 303 290 303 58 288 313 2 346 358 11 31 351 63
99 103 116 126 138 145 134 85 84 147 51 74 252 275 333 268 188 351 33 61 342 108 77 45 313 233 260 320 336 352 342 0 317 74 151 47 11 6 16 338 274 27 19 51
80 95 105 130 126 131 125 117 108 128 302 57 346 127 121 150 19 67 62 49 147 91 76 53 41 332 341 326 336 331 290 31 36 55 324 313 8 22 38 20 50 49 39 38
355 60 108 117 105 131 118 98 106 150 163 198 211 334 154 162 129 17 26 66 309 43 76 58 16 7 325 272 359 359 10 47 35 43 347 352 37 26 34 43 39 45 45 41
23 82 124 140 91 77 90 107 137 119 104 108 167 289 174 176 114 358 6 95 41 59 82 25 23 2 359 1 342 34 4 68 345 42 4 10 35 26 29 35 25 44 51 43
317 177 154 145 160 31 89 104 123 125 135 132 183 184 166 173 147 87 355 120 103 81 62 56 67 71 76 4 338 15 10 348 343 52 341 325 22 3 10 31 37 8 33 351
313 228 206 160 101 50 93 106 110 111 112 159 176 173 147 147 81 146 14 73 95 122 123 101 88 91 82 10 32 14 349 340 348 343 314 61 50 340 30 35 44 34 26 9
294 295 243 232 190 67 40 75 91 109 117 134 138 147 132 121 79 78 81 19 126 147 24 314 302 216 208 92 64 9 5 300 43 45 51 137 145 42 25 14 63 26 17 7
345 291 247 253 241 254 322 42 75 104 128 195 137 143 171 145 132 124 65 118 146 159 335 269 301 335 342 316 173 232 260 321 306 84 95 120 92 67 351 215 80 10 14 12
292 313 293 287 267 257 243 338 57 74 106 167 159 168 176 153 132 136 152 173 180 187 222 252 258 264 314 296 269 109 28 3 18 51 54 250 140 328 264 239 92 8 5 10
281 280 295 300 264 272 276 266 312 220 131 164 181 176 160 159 170 174 150 146 193 177 226 242 205 254 184 245 289 251 206 195 226 173 237 238 55 205 267 78 103 58 38 30
265 261 286 299 296 264 284 263 284 199 192 166 176 184 193 194 186 179 179 312 171 182 203 215 172 216 206 250 265 182 233 231 297 235 50 70 5 96 104 110 103 84 65 54
276 258 250 265 300 259 248 269 255 226 148 146 163 174 181 189 192 193 180 228 196 205 189 149 102 250 201 227 229 230 213 191 236 233 172 192 180 154 144 121 111 73 31 41
271 266 261 239 252 249 237 268 254 249 216 169 204 192 188 199 202 206 209 236 192 174 167 178 208 250 204 263 327 251 195 162 203 245 213 195 216 201 189 200 194 247 353 357
279 299 244 220 226 230 229 260 255 243 264 203 175 191 200 199 204 210 212 212 197 180 181 195 214 168 197 203 268 238 191 184 189 223 191 186 183 181 181 183 211 255 316 324
253 261 217 204 221 219 216 302 250 232 237 270 180 200 187 182 180 180 187 193 205 199 208 197 213 206 216 238 245 241 198 198 198 191 166 163 157 171 178 181 199 258 293 285
239 239 239 225 220 220 192 191 299 232 217 261 135 210 192 177 167 171 177 190 202 201 210 215 191 190 200 246 240 214 197 196 195 182 167 163 176 189 192 205 220 234 253 281
233 233 230 232 214 216 220 230 296 227 219 250 180 148 178 189 181 175 187 192 197 218 230 199 203 163 214 251 230 206 183 180 180 178 184 190 190 186 198 217 231 237 246 260
221 223 221 211 210 214 210 219 265 212 230 282 206 180 194 172 180 159 162 181 201 211 234 220 178 191 223 228 201 192 185 181 183 179 182 177 188 201 214 228 241 250 260 270
211 203 188 226 198 206 201 189 194 194 211 227 240 155 159 164 160 177 143 176 214 220 212 156 221 251 248 236 217 206 193 185 182 173 180 191 198 205 212 224 242 260 275 283
194 191 213 199 158 157 170 191 194 191 221 205 189 180 149 187 153 164 214 170 179 232 173 207 238 259 230 220 203 194 191 186 186 195 199 204 210 203 205 217 245 268 280 286
200 184 165 155 196 200 178 191 197 201 214 163 160 179 151 165 163 134 187 171 171 237 147 205 251 244 209 180 180 180 181 179 176 184 185 181 181 186 207 244 268 280 286 292
190 183 160 187 191 211 199 187 213 206 173 171 166 160 153 148 174 126 154 178 205 130 194 233 236 180 179 173 172 171 175 179 182 178 178 179 188 209 242 266 280 287 291 293
197 176 190 204 184 217 198 190 165 177 169 161 150 147 167 146 164 154 162 183 152 202 228 232 225 189 176 171 170 167 170 175 176 176 177 185 203 235 262 278 286 295 302 308
211 183 219 205 214 207 192 187 162 166 165 148 141 109 168 141 151 192 119 174 226 220 232 227 197 176 172 169 170 171 170 171 173 176 181 192 205 231 258 278 293 304 314 316
222 208 196 96 172 186 183 188 178 164 154 149 138 133 165 207 172 166 213 176 217 227 214 201 169 172 171 169 169 170 171 170 172 177 186 192 202 218 262 294 305 310 319 322
212 208 199 178 194 192 195 187 176 163 153 175 137 181 204 104 203 222 195 211 231 214 182 171 174 173 170 168 167 167 170 172 175 179 182 183 175 157 92 332 322 335 349 340
Height
1418 1419 1427 1435 1441 1450 1459 1462 1470 1477 1479 1483 1484 1479 1479 1478 1478 1478 1479 1478 1479 1478 1481 1487 1489 1489 1489 1486 1484 1477 1473 1472 1455 1445 1446 1450 1449 1439 1429 1417 1424 1427 1414 1428
1439 1434 1434 1439 1446 1452 1456 1467 1475 1481 1482 1485 1484 1482 1479 1480 1478 1479 1478 1478 1479 1478 1480 1484 1484 1486 1484 1484 1482 1478 1474 1464 1450 1438 1440 1445 1448 1441 1434 1435 1432 1427 1415 1431
1453 1450 1450 1449 1452 1455 1458 1466 1477 1484 1485 1486 1485 1481 1481 1481 1481 1480 1481 1481 1479 1478 1481 1482 1483 1481 1482 1483 1482 1479 1477 1470 1466 1465 1470 1470 1457 1445 1436 1432 1430 1435 1437 1441
1464 1461 1460 1460 1459 1460 1460 1463 1476 1478 1483 1485 1486 1486 1484 1482 1482 1483 1483 1481 1479 1480 1480 1481 1482 1482 1480 1481 1482 1479 1477 1470 1469 1469 1467 1464 1461 1458 1452 1448 1447 1446 1453 1450
1470 1468 1466 1465 1464 1462 1462 1465 1470 1477 1482 1484 1487 1488 1485 1484 1486 1486 1484 1484 1483 1482 1484 1485 1483 1485 1484 1483 1481 1482 1480 1473 1473 1466 1464 1463 1460 1462 1457 1459 1458 1455 1452 1452
1474 1473 1471 1470 1469 1467 1465 1468 1469 1471 1483 1485 1486 1484 1486 1485 1486 1488 1488 1488 1485 1485 1488 1488 1489 1488 1487 1485 1484 1480 1478 1474 1469 1469 1466 1463 1460 1473 1471 1470 1471 1467 1462 1467
1476 1475 1474 1473 1473 1472 1470 1468 1470 1470 1480 1481 1484 1485 1486 1487 1487 1487 1489 1489 1487 1491 1489 1490 1489 1489 1488 1486 1484 1484 1479 1475 1472 1467 1462 1466 1477 1477 1478 1475 1475 1475 1471 1467
1477 1476 1476 1476 1476 1476 1475 1472 1471 1472 1478 1480 1484 1485 1486 1488 1489 1490 1490 1490 1490 1490 1490 1489 1487 1485 1485 1484 1484 1482 1481 1476 1471 1467 1471 1477 1475 1477 1477 1475 1477 1478 1475 1474
1477 1478 1477 1478 1478 1478 1478 1475 1473 1473 1475 1480 1480 1484 1486 1486 1488 1491 1492 1492 1491 1492 1492 1489 1486 1481 1483 1482 1481 1482 1480 1477 1473 1474 1470 1468 1473 1478 1479 1478 1475 1478 1477 1476
1476 1478 1479 1478 1479 1479 1480 1478 1475 1475 1474 1478 1479 1481 1483 1485 1487 1487 1491 1492 1493 1493 1489 1486 1482 1479 1487 1479 1480 1479 1476 1475 1473 1469 1472 1470 1475 1478 1477 1470 1481 1482 1479 1476
1475 1475 1477 1478 1479 1480 1480 1479 1477 1476 1474 1476 1477 1478 1479 1482 1484 1484 1489 1492 1491 1492 1488 1484 1481 1481 1483 1483 1483 1480 1477 1477 1477 1478 1473 1471 1477 1477 1473 1478 1480 1480 1479 1479
1473 1473 1473 1476 1479 1480 1479 1479 1478 1476 1475 1476 1476 1476 1478 1479 1481 1484 1485 1486 1485 1486 1484 1485 1484 1481 1487 1482 1471 1485 1478 1475 1471 1473 1469 1477 1477 1476 1477 1479 1479 1481 1481 1479
1470 1470 1472 1472 1476 1478 1479 1479 1479 1477 1476 1478 1477 1476 1477 1477 1479 1481 1484 1484 1483 1484 1484 1484 1484 1482 1484 1475 1474 1477 1478 1479 1475 1476 1473 1475 1476 1476 1476 1476 1477 1479 1479 1479
1467 1466 1467 1469 1472 1474 1477 1479 1480 1479 1477 1476 1477 1475 1475 1476 1477 1479 1481 1482 1482 1483 1484 1484 1482 1481 1485 1478 1478 1475 1472 1476 1471 1471 1472 1474 1474 1475 1475 1476 1476 1477 1477 1477
1464 1462 1462 1465 1468 1471 1475 1478 1479 1480 1481 1475 1475 1475 1474 1474 1476 1477 1479 1481 1482 1482 1483 1482 1480 1482 1483 1482 1481 1469 1465 1462 1463 1457 1461 1464 1467 1471 1473 1474 1475 1476 1476 1476
1464 1462 1462 1463 1466 1468 1473 1478 1478 1479 1478 1477 1475 1474 1473 1473 1474 1476 1477 1479 1481 1481 1480 1480 1479 1479 1481 1477 1469 1454 1455 1456 1458 1459 1461 1464 1466 1469 1471 1473 1474 1475 1476 1475
1462 1462 1462 1462 1463 1465 1470 1474 1476 1475 1478 1476 1474 1472 1472 1473 1474 1475 1477 1478 1479 1479 1479 1478 1477 1478 1479 1475 1462 1447 1450 1454 1457 1459 1461 1464 1465 1467 1469 1470 1471 1472 1472 1472
1459 1462 1462 1461 1462 1464 1467 1469 1471 1474 1476 1474 1472 1471 1472 1472 1472 1474 1475 1477 1477 1477 1477 1476 1475 1476 1475 1464 1444 1445 1447 1451 1454 1456 1459 1461 1463 1465 1466 1468 1469 1470 1469 1470
1455 1459 1461 1460 1459 1461 1463 1467 1469 1470 1476 1470 1467 1464 1463 1467 1470 1471 1473 1474 1476 1475 1473 1472 1472 1464 1457 1435 1435 1438 1440 1443 1447 1453 1457 1459 1461 1463 1464 1466 1467 1467 1467 1468
1451 1456 1459 1456 1454 1457 1461 1465 1467 1469 1467 1465 1460 1459 1461 1463 1467 1470 1471 1471 1471 1470 1466 1467 1463 1444 1430 1428 1429 1432 1436 1442 1445 1449 1454 1456 1458 1460 1461 1463 1464 1464 1464 1464
1444 1449 1452 1452 1454 1455 1458 1460 1460 1456 1455 1450 1450 1452 1457 1460 1461 1464 1466 1465 1468 1466 1458 1461 1451 1432 1416 1415 1422 1427 1433 1439 1443 1447 1451 1454 1456 1458 1459 1460 1461 1461 1461 1460
1437 1442 1447 1452 1453 1450 1451 1450 1447 1444 1436 1437 1442 1445 1448 1453 1455 1458 1463 1461 1466 1456 1458 1458 1442 1411 1408 1411 1417 1423 1430 1436 1441 1445 1448 1451 1453 1456 1457 1458 1458 1458 1457 1456
1435 1436 1441 1443 1441 1440 1435 1432 1431 1429 1426 1427 1433 1440 1441 1447 1450 1453 1456 1457 1455 1454 1453 1435 1411 1405 1406 1409 1415 1421 1429 1435 1440 1443 1446 1449 1451 1453 1454 1454 1454 1453 1453 1452
1423 1422 1425 1423 1417 1408 1399 1398 1400 1404 1408 1413 1424 1436 1436 1439 1444 1446 1446 1448 1449 1446 1440 1416 1395 1397 1402 1407 1413 1418 1424 1431 1436 1441 1444 1447 1449 1450 1450 1450 1450 1449 1448 1446
1408 1407 1399 1395 1387 1387 1388 1392 1394 1396 1401 1407 1419 1431 1434 1434 1439 1438 1443 1446 1435 1424 1405 1392 1387 1391 1397 1404 1411 1417 1423 1429 1434 1438 1441 1444 1445 1447 1447 1447 1446 1444 1443 1443
1389 1383 1380 1381 1383 1385 1386 1386 1390 1393 1400 1408 1412 1421 1429 1424 1423 1430 1422 1418 1408 1389 1385 1381 1384 1390 1395 1402 1409 1417 1423 1428 1432 1436 1439 1440 1441 1442 1442 1443 1442 1441 1440 1439
1368 1364 1365 1370 1373 1374 1379 1382 1385 1391 1399 1400 1405 1411 1403 1415 1415 1411 1405 1398 1379 1375 1376 1378 1384 1389 1394 1402 1409 1415 1422 1427 1430 1433 1436 1438 1438 1438 1439 1439 1439 1438 1437 1436